sat.trackr.live / text

‹ back to catalog

GPS BIII-2 (PRN 18)

NORAD 44506 · 2019-056A

PAYLOAD ACTIVE UNKNOWN

§ Identity

Operator
Country
US
Launch date
2019-08-22
Launch site
AFETR
Launch vehicle
Mass (kg)
RCS (m²)

Purposes: earth_obs, nav

External: N2YO · Heavens-Above · Gunter

§ Orbital elements

Epoch: 2026-09-19T09:07:44.412960Z

Period
717.95 min
Inclination
55.5845°
Eccentricity
0.0066001
Mean motion
2.00571711 rev/d
Perigee alt
20,006.2 km
Apogee alt
20,356.8 km
Semi-major
26,559.6 km
B*
0.0000e+0
RAAN
327.3954°
Arg perigee
200.1969°
Mean anomaly
161.5484°
Rev number
5,196

§ Raw data

GPS BIII-2  (PRN 18)1 44506U 19056A   26262.38037515 -.00000082  00000+0  00000+0 0  99992 44506  55.5845 327.3954 0066001 200.1969 161.5484  2.00571711 51960

JSON: /api/v1/satellites/44506 · /tle

For live sub-satellite position, see the globe view (requires WebGL).

§ Visibility from observer

Set your observer location to see the next 7 days of passes ≥ 10°. The values pass through the URL so the page stays shareable.

No JS? Fill the form by hand. The geolocation button needs JavaScript.